DW2537 Weather Reports


Display with metric or nautical units.
time (UTC)temp
F
wind
direction
speed
MPH
gust
MPH
rain 1hr
in
rain 24hr
in
rain mn
in
humidity
%
barometer
mb
20260902133039 79 50 1.0 7.0 0.00 0.00 0.00 85 1018.5
20260902132021 79 19 3.0 7.0 0.00 0.00 0.00 85 1018.5
20260902131546 79 110 2.0 7.0 0.00 0.00 0.00 84 1018.4
20260902131020 79 50 2.0 8.0 0.00 0.00 0.00 84 1018.3
20260902130521 79 46 2.0 8.0 0.00 0.00 0.00 84 1018.3
20260902130051 79 0 0.0 4.0 0.00 0.00 0.00 86 1018.2
20260902124539 78 44 2.0 8.0 0.00 0.00 0.00 86 1018.1
20260902123040 77 291 1.0 6.0 0.00 0.00 0.00 88 1018.1
20260902122524 77 38 1.0 6.0 0.00 0.00 0.00 88 1018.0
20260902122019 77 86 1.0 6.0 0.00 0.00 0.00 89 1018.0
20260902121541 76 121 0.0 4.0 0.00 0.00 0.00 89 1018.0
20260902120042 76 69 1.0 4.0 0.00 0.00 0.00 90 1017.7
20260902114540 75 0 0.0 2.0 0.00 0.00 0.00 91 1017.8
20260902113520 74 0 0.0 2.0 0.00 0.00 0.00 92 1017.8
20260902113038 74 99 0.0 2.0 0.00 0.00 0.00 93 1017.8
20260902111544 73 0 0.0 0.0 0.00 0.00 0.00 94 1018.0
20260902110039 73 0 0.0 0.0 0.00 0.00 0.00 94 1017.9
20260902105521 73 0 0.0 0.0 0.00 0.00 0.00 94 1017.9
20260902104554 72 0 0.0 1.0 0.00 0.00 0.00 94 1017.7
20260902103044 72 0 0.0 0.0 0.00 0.00 0.00 93 1017.8
20260902101539 73 0 0.0 0.0 0.00 0.00 0.00 93 1017.5
20260902100106 73 0 0.0 0.0 0.00 0.00 0.00 92 1017.4
20260902094547 73 0 0.0 0.0 0.00 0.00 0.00 92 1017.4
20260902093044 73 0 0.0 0.0 0.00 0.00 0.00 92 1017.6
20260902091559 74 0 0.0 0.0 0.00 0.00 0.00 92 1017.5
20260902090039 74 0 0.0 1.0 0.00 0.00 0.00 91 1017.4
20260902084543 74 0 0.0 1.0 0.00 0.00 0.00 91 1017.4
20260902083044 75 0 0.0 0.0 0.00 0.00 0.00 91 1017.6
20260902081539 75 87 0.0 1.0 0.00 0.00 0.00 90 1017.5
20260902080054 75 95 0.0 1.0 0.00 0.00 0.00 89 1017.4
20260902075521 76 0 0.0 1.0 0.00 0.00 0.00 89 1017.5
20260902075021 76 0 0.0 1.0 0.00 0.00 0.00 89 1017.5
20260902074538 76 0 0.0 1.0 0.00 0.00 0.00 88 1017.5
20260902073043 76 0 0.0 2.0 0.00 0.00 0.00 87 1017.2
20260902071555 77 0 0.0 3.0 0.00 0.00 0.00 87 1017.2
20260902070040 77 73 0.0 3.0 0.00 0.00 0.00 86 1016.9
20260902064538 77 0 0.0 2.0 0.00 0.00 0.00 86 1016.7
20260902063045 78 0 0.0 3.0 0.00 0.00 0.00 85 1016.6
20260902062522 78 113 0.0 3.0 0.00 0.00 0.00 85 1016.5
20260902062020 78 0 0.0 1.0 0.00 0.00 0.00 85 1016.6
20260902061544 78 0 0.0 2.0 0.00 0.00 0.00 84 1016.6
20260902061020 78 0 0.0 3.0 0.00 0.00 0.00 84 1016.5
20260902060046 79 0 0.0 2.0 0.00 0.00 0.00 84 1016.5
20260902054545 79 124 0.0 7.0 0.00 0.00 0.00 83 1016.6
20260902053045 79 65 1.0 8.0 0.00 0.00 0.00 82 1016.6
20260902051538 80 51 0.0 3.0 0.00 0.00 0.00 82 1016.8
20260902050048 80 0 0.0 3.0 0.00 0.00 0.00 82 1016.4
20260902044542 80 0 0.0 6.0 0.00 0.00 0.00 82 1016.5
20260902043038 80 109 0.0 1.0 0.00 0.00 0.00 79 1016.4
20260902042521 80 0 0.0 1.0 0.00 0.00 0.00 78 1016.3
20260902042022 81 0 0.0 1.0 0.00 0.00 0.00 77 1016.2
20260902041542 81 117 0.0 1.0 0.00 0.00 0.00 76 1016.2
20260902040046 81 119 0.0 2.0 0.00 0.00 0.00 75 1016.0
20260902034541 81 0 0.0 1.0 0.00 0.00 0.00 74 1015.7
20260902033040 82 0 0.0 1.0 0.00 0.00 0.00 74 1015.2
20260902032521 82 0 0.0 1.0 0.00 0.00 0.00 73 1015.2
20260902031539 83 0 0.0 0.0 0.00 0.00 0.00 72 1015.1
20260902030045 84 190 0.0 1.0 0.00 0.00 0.00 71 1014.9
20260902024540 84 0 0.0 4.0 0.00 0.00 0.00 70 1014.6
20260902023039 84 0 0.0 5.0 0.00 0.00 0.00 71 1014.5
20260902022519 84 167 1.0 5.0 0.00 0.00 0.00 73 1014.6
20260902022018 84 0 1.0 4.0 0.00 0.00 0.00 73 1014.6
20260902021548 84 0 1.0 4.0 0.00 0.00 0.00 73 1014.7
20260902021024 84 178 1.0 3.0 0.00 0.00 0.00 72 1014.9
20260902020045 84 213 1.0 4.0 0.00 0.00 0.00 72 1014.9
20260902014544 85 173 0.0 3.0 0.00 0.00 0.00 72 1014.7
20260902013039 85 273 0.0 2.0 0.00 0.00 0.00 71 1014.6
20260902011549 85 0 0.0 4.0 0.00 0.00 0.00 71 1014.4
20260902010107 85 192 0.0 4.0 0.00 0.00 0.00 71 1014.3
20260902004539 85 172 0.0 2.0 0.00 0.00 0.00 72 1014.1
20260902003046 86 0 0.0 1.0 0.00 0.00 0.00 69 1014.0
20260902001540 87 0 0.0 0.0 0.00 0.00 0.00 67 1013.3
20260902000044 88 0 0.0 1.0 0.00 0.00 0.00 65 1013.1
20260901234545 89 0 0.0 1.0 0.00 0.00 0.00 63 1013.1
20260901233056 90 173 0.0 2.0 0.00 0.00 0.00 63 1013.3
20260901231550 90 181 0.0 3.0 0.00 0.00 0.00 62 1013.3
20260901231020 91 226 0.0 3.0 0.00 0.00 0.00 61 1013.4
20260901230050 91 176 0.0 2.0 0.00 0.00 0.00 61 1013.5
20260901224550 92 0 0.0 5.0 0.00 0.00 0.00 60 1013.5
20260901224024 92 0 0.0 5.0 0.00 0.00 0.00 60 1013.6
20260901223524 92 0 0.0 4.0 0.00 0.00 0.00 59 1013.6
20260901223050 93 164 0.0 4.0 0.00 0.00 0.00 58 1013.5
20260901222519 93 98 0.0 4.0 0.00 0.00 0.00 58 1013.6
20260901222020 93 146 1.0 7.0 0.00 0.00 0.00 58 1013.6
20260901221548 93 263 2.0 8.0 0.00 0.00 0.00 57 1013.7
20260901221024 93 159 1.0 8.0 0.00 0.00 0.00 57 1013.8
20260901220528 94 173 0.0 8.0 0.00 0.00 0.00 57 1013.7
20260901220048 94 256 1.0 5.0 0.00 0.00 0.00 57 1013.7
20260901215523 94 192 0.0 6.0 0.00 0.00 0.00 56 1013.7
20260901215026 94 109 2.0 7.0 0.00 0.00 0.00 55 1013.7
20260901214542 94 124 2.0 7.0 0.00 0.00 0.00 53 1013.7
20260901214019 94 169 2.0 7.0 0.00 0.00 0.00 53 1013.8
20260901213523 94 142 1.0 7.0 0.00 0.00 0.00 55 1013.7
20260901213059 94 186 1.0 4.0 0.00 0.00 0.00 55 1013.7
20260901212524 95 0 1.0 5.0 0.00 0.00 0.00 54 1013.8
20260901212024 95 0 1.0 7.0 0.00 0.00 0.00 53 1013.8
20260901211540 95 19 1.0 7.0 0.00 0.00 0.00 54 1014.0
20260901211024 96 171 1.0 7.0 0.00 0.00 0.00 53 1013.9
20260901210523 96 174 2.0 7.0 0.00 0.00 0.00 53 1013.9
20260901210046 96 167 1.0 4.0 0.00 0.00 0.00 53 1013.9
20260901205524 97 188 1.0 5.0 0.00 0.00 0.00 50 1013.9
20260901205022 97 0 1.0 5.0 0.00 0.00 0.00 51 1013.9
20260901204542 97 0 0.0 4.0 0.00 0.00 0.00 50 1014.0
20260901204020 97 96 0.0 6.0 0.00 0.00 0.00 50 1014.0
20260901203524 97 186 1.0 8.0 0.00 0.00 0.00 46 1014.1
20260901203043 98 147 3.0 8.0 0.00 0.00 0.00 49 1014.1
20260901202526 98 281 1.0 7.0 0.00 0.00 0.00 49 1014.1
20260901202024 97 32 1.0 7.0 0.00 0.00 0.00 48 1014.1
20260901201541 98 71 2.0 5.0 0.00 0.00 0.00 49 1014.2
20260901201024 97 159 1.0 4.0 0.00 0.00 0.00 50 1014.2
20260901200524 97 167 1.0 4.0 0.00 0.00 0.00 49 1014.2
20260901200101 97 0 1.0 4.0 0.00 0.00 0.00 52 1014.3
20260901195521 97 0 1.0 4.0 0.00 0.00 0.00 50 1014.3
20260901195018 96 79 1.0 7.0 0.00 0.00 0.00 53 1014.5
20260901194555 96 0 1.0 7.0 0.00 0.00 0.00 53 1014.5
20260901194023 96 128 1.0 7.0 0.00 0.00 0.00 52 1014.5
20260901193524 95 113 1.0 5.0 0.00 0.00 0.00 52 1014.5
20260901193053 95 172 1.0 6.0 0.00 0.00 0.00 54 1014.6
20260901192524 95 0 1.0 6.0 0.00 0.00 0.00 52 1014.7
20260901192025 96 25 1.0 6.0 0.00 0.00 0.00 51 1014.7
20260901191542 96 267 1.0 4.0 0.00 0.00 0.00 52 1014.8
20260901191027 96 20 1.0 9.0 0.00 0.00 0.00 51 1014.8
20260901190526 96 287 2.0 9.0 0.00 0.00 0.00 52 1014.9
20260901190047 96 0 1.0 7.0 0.00 0.00 0.00 53 1014.9
20260901185524 96 125 2.0 7.0 0.00 0.00 0.00 48 1015.0
20260901185024 96 28 1.0 6.0 0.00 0.00 0.00 51 1015.1
20260901184547 96 42 1.0 4.0 0.00 0.00 0.00 53 1015.1
20260901184025 95 45 1.0 4.0 0.00 0.00 0.00 54 1015.0
20260901183524 95 10 1.0 9.0 0.00 0.00 0.00 56 1015.0
20260901183045 95 300 1.0 9.0 0.00 0.00 0.00 57 1015.1
20260901182524 95 47 1.0 7.0 0.00 0.00 0.00 56 1015.0
20260901182024 95 166 3.0 7.0 0.00 0.00 0.00 50 1015.0
20260901181541 95 277 1.0 9.0 0.00 0.00 0.00 56 1014.9
20260901181025 95 53 1.0 9.0 0.00 0.00 0.00 57 1015.0
20260901180525 95 198 1.0 5.0 0.00 0.00 0.00 56 1015.0
20260901180050 94 0 1.0 7.0 0.00 0.00 0.00 59 1015.1
20260901175524 94 273 2.0 7.0 0.00 0.00 0.00 59 1015.2
20260901175024 93 47 1.0 5.0 0.00 0.00 0.00 58 1015.2
20260901174558 93 283 1.0 5.0 0.00 0.00 0.00 56 1015.2
20260901174027 93 150 1.0 5.0 0.00 0.00 0.00 60 1015.4
20260901173525 92 0 1.0 6.0 0.00 0.00 0.00 62 1015.2
20260901173042 92 144 1.0 6.0 0.00 0.00 0.00 60 1015.3
20260901172523 92 93 2.0 6.0 0.00 0.00 0.00 61 1015.3
20260901172024 92 252 1.0 5.0 0.00 0.00 0.00 60 1015.3
20260901171541 92 114 1.0 5.0 0.00 0.00 0.00 60 1015.2
20260901171020 92 0 1.0 4.0 0.00 0.00 0.00 60 1015.3
20260901170526 91 0 0.0 5.0 0.00 0.00 0.00 63 1015.4
20260901170147 91 127 1.0 5.0 0.00 0.00 0.00 61 1015.6
20260901165525 91 276 1.0 7.0 0.00 0.00 0.00 65 1015.7
20260901165026 91 279 1.0 7.0 0.00 0.00 0.00 62 1015.7
20260901164548 91 181 1.0 7.0 0.00 0.00 0.00 63 1015.8
20260901164024 91 0 0.0 4.0 0.00 0.00 0.00 66 1015.7
20260901163524 91 0 0.0 4.0 0.00 0.00 0.00 60 1015.7
20260901163046 91 0 1.0 5.0 0.00 0.00 0.00 62 1015.8
20260901162522 91 153 1.0 5.0 0.00 0.00 0.00 63 1015.9
20260901162026 91 229 1.0 4.0 0.00 0.00 0.00 61 1016.0
20260901161550 91 92 1.0 7.0 0.00 0.00 0.00 61 1016.1
20260901161025 91 22 1.0 7.0 0.00 0.00 0.00 60 1016.1
20260901160524 92 279 2.0 7.0 0.00 0.00 0.00 59 1016.2
20260901160041 92 169 1.0 7.0 0.00 0.00 0.00 60 1016.0
20260901155524 91 261 2.0 6.0 0.00 0.00 0.00 61 1016.1
20260901155027 91 54 2.0 7.0 0.00 0.00 0.00 61 1016.2
20260901154559 91 0 1.0 7.0 0.00 0.00 0.00 61 1016.2
20260901154022 92 80 3.0 7.0 0.00 0.00 0.00 60 1016.2
20260901153524 92 20 1.0 5.0 0.00 0.00 0.00 63 1016.3
20260901153104 92 37 1.0 5.0 0.00 0.00 0.00 61 1016.4
20260901152524 91 60 2.0 7.0 0.00 0.00 0.00 61 1016.5
20260901152023 92 360 2.0 7.0 0.00 0.00 0.00 61 1016.5
20260901151546 91 155 1.0 7.0 0.00 0.00 0.00 62 1016.5
20260901151025 91 268 2.0 5.0 0.00 0.00 0.00 63 1016.4
20260901150525 90 75 1.0 7.0 0.00 0.00 0.00 63 1016.4
20260901150044 90 299 2.0 7.0 0.00 0.00 0.00 63 1016.4
20260901145524 90 20 1.0 5.0 0.00 0.00 0.00 63 1016.4
20260901145021 89 156 2.0 5.0 0.00 0.00 0.00 65 1016.5
20260901144547 89 0 1.0 5.0 0.00 0.00 0.00 70 1016.5
20260901144025 88 151 1.0 5.0 0.00 0.00 0.00 69 1016.5
20260901143525 87 261 1.0 4.0 0.00 0.00 0.00 69 1016.6
20260901143050 87 25 1.0 4.0 0.00 0.00 0.00 69 1016.5
20260901142523 87 227 1.0 8.0 0.00 0.00 0.00 68 1016.4
20260901142024 87 140 1.0 8.0 0.00 0.00 0.00 71 1016.4
20260901141546 87 195 1.0 6.0 0.00 0.00 0.00 73 1016.4
20260901141021 86 190 1.0 11.0 0.00 0.00 0.00 75 1016.4
20260901140516 86 163 0.0 11.0 0.00 0.00 0.00 73 1016.5
20260901140041 86 0 1.0 5.0 0.00 0.00 0.00 73 1016.5
20260901135522 86 9 1.0 7.0 0.00 0.00 0.00 75 1016.4
20260901135028 85 196 3.0 7.0 0.00 0.00 0.00 74 1016.4
20260901134541 85 182 1.0 5.0 0.00 0.00 0.00 71 1016.3